Dewpoint
52 52 52 53 53 53 54 54 54 54 54 55 55 55 56 57 56 41 33 29 35 65 64 46 45 45 43 41 38 37 32 30 30 26 25 26 26 29 29 27 27 26 24 31 38
52 52 52 53 53 53 53 53 53 53 53 54 54 54 56 56 43 29 42 57 65 65 43 43 44 43 40 37 35 33 32 30 31 28 24 25 26 27 27 28 28 26 27 33 35
52 52 52 52 53 53 53 53 53 53 53 53 53 54 56 54 34 15 64 63 64 62 32 38 41 41 38 35 34 32 30 30 31 30 25 23 23 27 25 26 26 25 25 32 33
52 52 52 52 52 53 53 53 52 52 52 52 53 55 56 43 12 36 64 66 66 41 30 28 34 37 36 34 34 30 31 31 30 29 25 21 22 27 25 26 26 25 25 31 35
53 52 52 53 52 53 53 53 53 53 52 52 53 54 46 26 21 25 64 63 48 32 28 27 29 35 33 32 33 33 31 30 29 28 26 22 24 27 25 26 25 24 25 29 35
55 54 53 53 53 53 54 53 54 54 53 52 53 54 44 26 18 18 23 43 32 29 26 27 26 27 29 29 29 32 31 28 28 28 25 23 25 26 27 28 25 25 26 28 32
53 54 54 53 53 53 53 53 53 54 53 52 53 48 37 25 23 21 17 27 37 33 26 25 28 28 28 29 30 29 28 26 26 26 25 26 25 26 27 28 28 28 30 31 33
52 52 53 54 54 54 53 53 53 53 53 53 53 45 34 28 29 26 23 19 16 23 30 31 28 26 27 30 28 27 27 23 25 26 25 26 25 27 28 29 31 29 29 31 37
51 51 52 51 52 54 54 53 53 52 53 53 47 38 22 35 32 27 22 19 27 27 28 25 24 28 25 25 26 27 24 23 24 25 25 25 26 27 28 30 33 32 33 31 35
48 51 51 51 51 53 53 53 51 52 48 45 36 33 36 30 23 26 20 17 17 21 19 25 23 25 25 22 23 25 23 22 24 25 23 25 26 28 29 28 33 35 34 35 37
47 49 51 52 51 52 49 43 39 44 37 34 30 23 19 27 27 19 20 18 17 16 17 25 23 24 26 27 23 24 22 23 25 24 26 28 31 29 29 29 31 34 36 39 41
49 47 48 50 51 52 47 41 38 36 33 35 33 26 23 21 18 16 17 19 17 14 16 19 25 24 24 24 22 22 23 23 23 22 22 24 26 28 29 31 32 31 33 38 42
51 49 47 48 51 47 41 40 41 38 31 27 31 36 31 25 22 19 15 17 16 14 13 15 20 22 23 22 20 24 24 24 23 23 24 25 27 29 28 29 28 30 34 37 43
52 51 48 49 46 42 41 39 40 35 25 18 20 20 28 31 23 20 17 18 17 14 14 12 14 20 22 20 22 24 23 23 24 23 21 25 25 30 27 28 26 25 33 36 43
52 51 50 47 42 40 41 38 33 34 21 16 14 19 20 27 19 21 18 17 20 14 12 11 14 16 23 21 21 22 22 23 23 24 24 24 25 24 27 26 25 24 28 38 43
52 52 51 41 41 39 39 42 35 27 17 15 14 16 18 22 23 15 19 18 17 16 13 10 11 17 19 21 21 21 22 23 23 22 25 25 24 23 24 22 22 21 25 37 41
52 51 50 41 35 39 41 39 27 20 16 14 15 16 17 18 20 20 18 18 17 17 19 12 8 12 18 19 21 21 26 22 26 23 25 24 23 27 28 23 20 21 28 40 43
52 51 48 44 37 39 41 38 26 16 17 15 14 17 17 17 18 19 16 15 19 18 15 13 10 11 16 19 19 22 28 20 28 23 21 25 24 22 23 23 23 24 31 42 43
50 46 47 44 38 39 40 31 23 20 15 14 15 16 18 19 15 18 19 16 16 21 20 16 12 12 13 18 21 23 22 22 23 22 19 20 25 28 27 22 24 27 38 45 45
47 45 40 41 41 44 38 29 24 21 17 17 17 18 20 18 17 18 20 18 16 19 25 23 21 16 13 19 23 25 21 21 20 24 27 20 22 22 26 25 30 35 40 47 46
48 40 39 41 46 41 32 27 25 25 20 17 17 18 21 21 21 16 17 16 15 15 23 25 30 22 19 22 22 22 20 23 25 21 24 25 22 29 31 34 40 38 43 46 45
43 36 41 39 37 37 34 30 29 24 24 23 22 20 22 23 25 26 19 20 14 18 21 26 30 27 21 20 23 24 23 27 23 29 24 22 24 32 34 32 37 40 42 43 43
40 40 44 47 32 32 32 27 26 23 22 20 22 23 27 26 26 28 28 18 16 20 25 28 29 29 26 24 26 25 24 25 33 36 31 21 23 33 31 31 33 42 41 41 43
41 35 41 45 40 34 29 26 26 28 23 20 28 27 30 29 26 27 28 26 15 18 36 37 33 31 27 25 27 28 25 21 27 29 24 23 23 30 30 30 32 41 42 40 42
41 31 33 31 34 33 32 30 24 26 28 22 26 26 27 27 26 27 31 34 34 28 34 37 30 32 26 23 21 22 21 21 23 26 24 26 24 26 32 33 33 41 42 39 39
38 36 34 29 30 28 30 28 20 21 23 25 28 25 28 28 26 30 30 33 34 36 30 40 32 32 23 22 21 20 21 21 21 20 24 25 27 30 32 32 32 39 40 38 39
38 41 38 31 30 31 31 27 26 26 24 24 26 27 26 29 27 30 31 34 34 35 38 39 33 32 29 23 21 23 22 22 23 23 24 24 29 30 28 28 32 42 41 41 40
Lifted_Index
12 13 13 12 12 11 11 11 10 10 10 9 10 10 10 10 9 7 5 5 5 4 3 2 1 0 0 1 1 1 1 0 -0 -0 -0 0 0 0 1 1 1 2 3 3 3
13 13 13 13 12 12 11 11 10 10 10 10 10 10 10 9 8 6 5 5 5 4 3 2 0 -0 0 1 1 1 1 0 -0 -0 0 1 1 1 1 1 1 1 3 3 3
13 13 13 13 13 12 12 11 11 11 11 10 10 10 10 8 6 5 5 5 4 3 3 2 0 -0 0 1 1 1 1 0 -0 0 1 1 2 1 1 1 1 1 2 3 3
12 13 13 13 13 13 12 12 11 11 11 11 10 10 9 7 5 5 4 4 3 4 4 3 1 0 -0 0 0 0 0 -0 0 1 2 2 2 1 1 1 1 2 2 2 2
12 12 12 13 13 13 13 12 12 11 11 11 10 10 8 7 6 5 5 4 4 5 5 4 2 1 0 0 0 -0 -0 -0 0 1 2 2 2 2 1 1 1 2 2 2 2
12 12 12 13 13 13 13 12 12 12 11 11 10 10 8 7 7 7 6 5 5 5 5 4 3 2 1 1 0 0 -0 0 1 2 2 2 2 2 2 1 2 2 2 2 2
13 13 13 13 13 12 12 12 12 12 12 11 11 10 9 8 8 7 7 6 5 5 5 5 4 3 2 2 1 1 1 1 1 2 2 2 2 2 1 1 1 2 2 2 2
14 14 13 13 13 12 12 12 12 12 12 11 11 10 9 9 8 8 7 7 6 6 5 5 5 4 3 3 2 2 2 2 2 1 1 1 1 1 1 0 1 1 1 2 2
15 15 14 14 13 13 12 12 12 12 12 11 11 11 9 8 8 7 8 8 7 7 6 6 5 5 4 4 3 3 2 2 2 1 0 0 0 1 0 0 0 0 1 1 1
16 15 15 14 14 13 13 12 12 11 11 11 11 10 9 8 7 7 8 8 8 7 7 6 6 5 5 4 3 3 2 2 1 0 0 -0 -0 -0 0 0 0 -0 0 1 1
17 16 15 15 14 14 13 12 10 10 10 10 10 9 8 8 8 8 8 8 9 8 8 7 6 5 5 4 3 3 2 1 0 -0 -0 -0 -0 -0 0 1 1 0 0 0 1
16 17 16 15 14 14 13 12 10 10 10 9 9 9 9 8 8 8 8 9 9 8 7 6 5 5 5 4 3 3 2 1 -0 -0 -0 -0 -0 -0 0 1 1 1 1 1 1
15 16 16 16 15 14 13 12 11 10 10 9 9 9 9 8 8 8 8 8 8 8 7 6 5 4 4 3 3 3 2 1 0 -0 -0 -0 0 0 0 0 0 0 1 1 1
13 14 15 16 15 13 12 11 11 10 9 8 9 9 8 8 8 8 8 8 8 8 7 6 5 4 3 3 3 2 1 0 -0 -0 0 1 1 1 0 0 -0 0 1 1 1
10 11 13 14 14 12 11 11 10 8 6 6 7 8 8 7 7 7 7 7 7 7 7 6 5 4 3 2 2 1 0 -0 -0 -0 1 1 2 1 1 -0 -0 0 1 1 1
6 7 9 10 11 11 11 10 9 7 5 5 5 7 7 7 7 6 7 7 7 6 6 5 5 4 2 1 1 0 -0 -0 -0 0 1 2 2 2 1 0 0 1 1 0 -0
3 4 5 6 7 8 8 8 8 7 6 5 4 5 6 7 6 6 6 6 6 5 5 5 4 4 2 1 0 -0 0 0 0 1 1 1 1 1 1 1 1 1 1 -0 -0
2 2 3 3 4 5 4 5 7 8 7 5 3 3 4 5 5 5 5 5 5 5 4 4 4 3 3 1 0 0 1 1 1 0 1 1 0 0 1 1 2 1 1 -0 -0
2 2 2 2 2 2 2 3 7 8 7 5 3 2 2 2 3 4 4 5 5 5 4 3 3 3 2 1 0 1 2 2 1 0 0 0 -0 0 1 2 2 1 -0 -1 -1
2 2 2 2 2 2 1 3 5 7 7 5 3 3 2 1 1 2 3 4 5 5 4 3 2 2 1 0 0 1 2 2 2 1 0 0 0 0 1 1 1 0 -1 -1 -1
2 2 2 2 2 2 2 2 3 5 5 5 4 4 3 2 1 1 2 3 4 4 4 3 2 1 0 0 1 2 2 2 2 1 1 0 0 0 0 0 -0 -1 -1 -1 -1
1 1 1 1 1 1 1 1 2 3 4 5 5 5 4 3 2 1 1 2 3 3 4 3 2 0 -0 0 1 2 2 1 1 1 1 0 0 0 0 0 -0 -1 -1 -0 -0
1 0 0 0 1 1 0 1 1 2 3 4 5 5 5 4 3 2 1 1 1 2 3 3 2 1 -0 -0 0 1 2 1 1 1 1 1 1 0 0 0 -0 -0 -0 -0 0
1 0 -0 -0 0 0 0 0 1 1 2 3 4 5 5 5 4 2 1 0 0 1 1 2 1 1 0 0 0 1 2 2 2 2 2 2 1 0 0 0 -0 -1 -0 -0 0
0 0 -0 -0 0 0 0 0 0 1 1 2 3 4 5 5 4 3 2 1 0 -0 -0 0 1 1 1 0 0 1 2 2 3 3 3 2 1 0 -0 0 -0 -1 -1 -0 -0
0 0 -0 0 0 0 0 0 0 0 0 1 2 3 5 5 5 4 3 3 1 0 -1 -1 -0 1 1 1 0 0 1 2 3 3 3 3 2 1 -0 -0 -1 -2 -2 -1 -0
1 0 0 0 0 -0 -0 -0 0 0 0 1 2 3 5 6 5 5 5 4 3 1 -1 -1 -1 0 0 0 0 -0 0 2 3 3 3 3 2 1 0 -0 -1 -2 -2 -1 -1